Weather in Aracaju

Brazil     10°55′11″S   37°03′49″W
temp.,
°C
wind,
m/s
gust,
m/s
humid.,
%
clouds,
%
prec.,
mm/h
press.,
hPa
HPBL,
m
17 may, mon
mon1700:00+25sse348248 4.2 1016261
03:00+25sse358147 8.5 1014412
06:00+25sse578123 2.9 1015607
09:00+26sse577919 6.4 1017767
12:00+26sse56800 4.2 1015605
15:00+26sse67824 7.4 1014620
18:00+25sse67834 4.9 1015505
21:00+25sse678223 8.0 1016561
18 may, tue
tue1800:00+25s45848 3.6 1015312
03:00+25s348224 6.6 1014257
06:00+24ssw248310 1.8 1015245
09:00+26s447718 3.1 1016670
12:00+27sse557520 0.9 1015820
15:00+26sse56796 2.4 1013728
18:00+26sse56806 0.4 1015588
21:00+26se348026 0.4 1015502
19 may, wed
wed1900:00+26sse34797 0.0 1015555
03:00+25se23765 0.1 1014462
06:00+25se23743 0.0 1015486
09:00+27ese447346 0.0 1016807
12:00+27se447381 0.1 1015842
15:00+27se447499 0.1 1013804
18:00+27se457852 0.2 1014446
21:00+26ese458294 0.9 1015432
20 may, thu
thu2000:00+26ese348319 1.2 1014226
03:00+26ese12813 2.3 1013283
06:00+25ene238312 0.5 1014387
09:00+26e348110 1.3 1016551
12:00+27ese34745 1.9 1015678
15:00+27se45734 1.9 1013793
18:00+26se45770 0.1 1014611
21:00+26ese45804 0.2 1015564
21 may, fri
fri2100:00+26se45825 1.2 1014355
03:00+26se45810 2.7 1013378
06:00+26ese45811 1.3 1014525
09:00+27ese56773 1.6 1016790
12:00+27ese557712 0.9 1014750
15:00+27e557612 1.1 1012805
18:00+26e45796 0.1 1013654
21:00+26e45814 0.3 1015491